Вернуться в каталог

THORAD AGENA D DEB

АктивенPO
NORAD 4777·DEBRIS·🇺🇸 United States

Запущен Apr 8, 1970 с Vandenberg Space Force Base

Loading…

Ближайшие Пролёты (ближайшие 24 часа)

TLE

СвежийSource: Space-Track

Эпоха: Sep 14, 2026, 13:41 UTC

1 04777U 70025DX  26257.57040603  .00000821  00000-0  68309-3 0  9996
2 04777  99.9462  17.5595 0006664 223.4047 199.9236 13.91926575819478

Отслеживайте THORAD AGENA D DEB в реальном времени с AllMySat

Download on the App Store